Tracking 32110 objects as of 7-Nov-2025
HD Live streaming from Space Station
objects crossing your sky now

GARUDA 1

Track GARUDA 1 now!
GARUDA 1 is classified as:


NORAD ID: 26089
Int'l Code: 2000-011A
Perigee: 35,869.7 km
Apogee: 35,924.4 km
Inclination: 9.1 °
Period: 1,441.4 minutes
Semi major axis: 42268 km
RCS: 16.0243 m2 (large)
Launch date: February 12, 2000
Source: Indonesia (INDO)
Launch site: TYURATAM MISSILE AND SPACE COMPLEX (TTMTR)

L-band; mobile telephone communications.
Your satellite tracking list
Your tracking list is empty




NASA's NSSDC Master Catalog

Two Line Element Set (TLE):
1 26089U 00011A   25310.90124126  .00000122  00000-0  00000+0 0  9997
2 26089   9.1071  66.6127 0006473 174.2614 184.9467  0.99904343 39437
Source of the keplerian elements: AFSPC